Location: West Cummington
(42.4920°N, 72.9680°W)
Time: 12:36:15
(UTC-04:00)

ATLAS 2AS CENTAUR R/B - Visible Passes

Search period start: 24 April 2018 00:00
Search period end: 04 May 2018 00:00
Orbit: 909 x 1302 km, 63.7° (Epoch: 22 April)

Date Brightness Start Highest point End Pass type
(mag) Time Alt. Az. Time Alt. Az. Time Alt. Az.
24 Apr 3.1 20:14:13 10° NW 20:22:10 80° WSW 20:29:24 10° SSE visible
24 Apr 5.0 22:07:37 10° WNW 22:11:49 16° WSW 22:15:50 10° SW visible
25 Apr 4.6 21:21:25 10° NW 21:27:32 26° WSW 21:33:17 10° SSW visible
26 Apr 4.1 20:35:56 10° NW 20:43:07 41° WSW 20:49:45 10° S visible
27 Apr 5.4 21:46:05 10° W 21:47:51 11° W 21:49:36 10° WSW visible
28 Apr 5.0 20:58:31 10° WNW 21:03:39 20° WSW 21:08:33 10° SSW visible
29 Apr 4.6 20:12:42 10° NW 20:19:20 32° WSW 20:25:30 10° S visible
01 May 5.3 20:36:04 10° WNW 20:39:44 14° WSW 20:43:16 10° SW visible
